Regional Weather Roundup
Issued by NWS Midland/Odessa, TX

Skip options and go directly to product.
Home | Oldest Version | Next Version | Current Version | All | Text Only | Save Text | Print | Product List | Glossary On

Skip product version selection by date and time.   
465
ASUS44 KMAF 232201
RWRMAF
MIDLAND AREA WEATHER ROUNDUP
NATIONAL WEATHER SERVICE MIDLAND TX
500 PM CDT TUE AUG 23 2016

...IN SOUTHWEST TEXAS AND SOUTHEAST NEW MEXICO...

CITY           SKY/WX    TMP DP  RH WIND       PRES   REMARKS
ALPINE         PTSUNNY   80  63  55 W9        30.21F
ANDREWS        NOT AVBL
ARTESIA        CLOUDY    86  63  45 S10G17    30.04F
BIG SPRING     CLOUDY    91  66  44 S9G17     30.06F
CARLSBAD       PTSUNNY   88  63  43 MISG      30.00F
DRYDEN           N/A     91  69  48 SE10G21   30.02F
FORT STOCKTON  MOSUNNY   91  62  37 S14G24    30.04F
GUAD PASS      CLOUDY    80  60  50 SW24G30   30.19F
HOBBS          MOSUNNY   86  59  39 SE18G24   30.07S
MARFA          LGT RAIN N/A N/A N/A SW5       30.21F
MIDLAND AIRPK  CLOUDY    90  63  39 S14G21    30.06F
MIDLAND INTL   CLOUDY    89  63  41 S13       30.05F
ODESSA         MOSUNNY   89  63  41 S20       30.07F
PECOS          CLOUDY    91  63  39 S14G22    30.02S THUNDER
PRESIDIO       NOT AVBL
SEMINOLE       CLOUDY    87  61  41 S17G24    30.07S
SNYDER           N/A     90  67  46 S13       30.04F
WINK           CLOUDY    90  60  36 S15G28    30.02F
$$
...OTHER STATIONS IN TEXAS...

CITY           SKY/WX    TMP DP  RH WIND       PRES   REMARKS
ABILENE        SUNNY     93  62  35 S16G24    30.03F
AMARILLO       MOSUNNY   92  55  28 SW16      29.99F
AUSTIN         MOSUNNY   93  71  48 S13       30.07F HX 100
BROWNSVILLE    SUNNY     93  73  52 SE17      30.06F HX 102
CORPUS CHRISTI MOSUNNY   94  71  47 SE18G25   30.06S HX 101
DALLAS FTW     MOSUNNY   93  69  45 S21G28    30.03F
DEL RIO        SUNNY     92  67  43 SE17G25   30.00F
EL PASO        PTSUNNY   88  59  37 NE6       30.05F
HOUSTON INT    CLOUDY    86  78  77 E10       30.09F
LUBBOCK        CLOUDY    89  62  40 S20G25    30.03S THUNDER
SAN ANGELO     SUNNY     95  57  27 S16G24    30.03F
SAN ANTONIO    MOSUNNY   90  68  48 S16       30.08F
WACO           SUNNY     94  70  45 S17       30.05F HX 100
WICHITA FALLS  NOT AVBL
$$
...OTHER LOCATIONS IN NEW MEXICO...

CITY           SKY/WX    TMP DP  RH WIND       PRES   REMARKS
ALAMAGORDO     MOSUNNY   84  55  37 E3        30.08F
ALBUQUERQUE    CLOUDY    79  47  32 SW6       30.16F
CANNON AFB     MOSUNNY   91  46  21 W16G23    30.04F
CLOVIS         CLOUDY    93  50  22 W16G24    30.04F
HOLLOMAN AFB   PTSUNNY   88  55  32 SE9       30.04F
ROSWELL        CLOUDY    88  60  38 S15       30.03F
RUIDOSO          N/A     77  45  31 SW10G18   30.27F
SANTA FE       MOSUNNY   77  47  34 W23G30    30.21S
TRUTH OR CONSE PTSUNNY   86  44  23 VRB3      30.09F
TUCUMCARI      SUNNY     95  43  16 W18G25    29.99F
$$

USA.gov is the U.S. government's official web portal to all federal, state and local government web resources and services.